#timestamp,LO_Frequency,Hit,StdDev 
1457640015.5,286046996.1,N
1457640035.3,286046999.2,N
1457640055.1,286047001.0,N
1457640075.9,286047002.7,N
1457640095.7,286047003.6,N
1457640115.5,286047003.6,N
1457640135.4,286047005.5,N
1457640155.2,286047001.7,N
1457640175.0,286047002.0,N
1457640175.9,286047002.0,N
1457640195.8,286047002.5,N
1457640215.6,286047001.5,N
1457640235.4,286047004.3,N
1457640255.3,286047002.0,N
1457640275.1,286047000.7,N
1457640276.0,286047000.7,N
1457640295.8,286046998.9,N
1457640315.7,286047001.2,N
1457640335.5,286046998.2,N
1457640355.3,286046999.4,N
1457640375.2,286046999.7,N
1457640395.9,286047002.8,N
1457640415.7,286047001.4,N
1457640435.5,286047000.9,N
1457640455.4,286047000.7,N
1457640475.2,286046998.1,N
1457640495.0,286046995.0,N
1457640495.9,286046995.0,N
1457640515.8,286046996.2,N
1457640535.6,286046993.7,N
1457640555.4,286046993.9,N
1457640575.3,286046993.0,N
1457640595.1,286046994.7,N
1457640596.0,286046994.7,N
1457640615.8,286046992.8,N
1457640635.7,286046989.1,Y
1457640655.5,286046988.9,P
1457640675.3,286046988.4,N
1457640695.2,286046989.3,N
1457640715.9,286046988.9,N
1457640735.7,286046988.8,N
1457640755.6,286046986.7,Y
1457640775.4,286046993.4,P
1457640795.2,286046993.8,P
1457640815.1,286046994.9,P
1457640816.0,286046994.9,Y
1457640835.8,286047000.1,P
1457640855.6,286047002.5,N
1457640875.5,286047002.7,N
1457640895.3,286047002.6,N
1457640915.1,286047004.2,N
1457640935.9,286047000.0,N
1457640955.7,286046999.2,N
1457640975.5,286046999.4,N
1457640995.3,286047002.3,N
1457641015.2,286046999.2,N
1457641035.0,286047001.5,N
1457641035.9,286047001.5,N
1457641055.7,286047000.2,N
1457641075.6,286047001.8,N
1457641095.4,286047002.5,N
1457641115.2,286047003.9,N
1457641135.1,286047003.0,N
1457641136.0,286047003.0,N
1457641155.8,286047005.3,N
1457641175.6,286047001.6,N
1457641195.5,286047000.3,N
1457641215.3,286046999.9,N
1457641235.1,286046999.4,N
1457641255.9,286047000.8,N
1457641275.7,286047002.5,N
1457641295.5,286047001.4,N
1457641315.4,286047004.0,N
1457641335.2,286047002.3,N
1457641355.0,286047002.1,N
1457641355.9,286047002.1,N
1457641375.7,286047002.6,N
1457641395.6,286046999.7,N
1457641415.4,286047004.4,N
1457641435.2,286047001.8,N
1457641455.1,286047004.0,N
1457641456.0,286047004.0,N
1457641475.8,286047002.0,N
1457641495.6,286046999.7,N
1457641515.5,286046999.0,N
1457641535.3,286046996.6,N
1457641555.1,286047000.1,N
1457641575.9,286047004.0,N
1457641595.7,286047000.2,N
1457641615.5,286047000.6,N
1457641635.4,286046999.9,N
1457641655.2,286046998.8,N
1457641675.0,286047000.9,N
1457641675.9,286047000.9,N
1457641695.8,286046998.9,N
1457641715.6,286046999.6,N
1457641735.4,286047002.4,N
1457641755.3,286047002.0,N
1457641775.1,286047000.0,N
1457641776.0,286047000.0,N
1457641795.8,286046999.8,N
1457641815.6,286047002.3,N
1457641835.5,286046998.2,N
1457641855.3,286046999.0,N
1457641875.1,286046999.3,N
1457641895.9,286046996.5,N
1457641915.7,286046998.1,N
1457641935.5,286046998.1,N
1457641955.4,286046997.1,N
1457641975.2,286046994.9,N
1457641995.0,286046997.8,N
1457641995.9,286046997.8,N
1457642015.8,286046998.6,N
1457642035.6,286046999.0,N
1457642055.4,286046999.0,N
1457642075.3,286046996.7,N
1457642095.1,286046993.6,Y
1457642115.8,286046993.8,P
1457642135.7,286046993.4,N
1457642155.5,286046996.1,N
1457642175.3,286046994.5,N
1457642195.2,286046993.3,Y
1457642215.9,286046998.6,P
1457642235.7,286046997.1,N
1457642255.6,286046998.3,N
1457642275.4,286046999.4,N
1457642295.2,286046997.0,N
1457642315.0,286047000.3,N
1457642316.0,286047000.3,N
1457642335.8,286047000.7,N
1457642355.6,286046996.7,N
1457642375.4,286046995.8,N
1457642395.3,286046994.4,Y
1457642415.1,286046997.5,P
1457642435.8,286046999.3,N
1457642455.7,286046995.2,P
1457642475.5,286046995.8,N
1457642495.3,286046997.0,N
1457642515.2,286046997.5,N
1457642535.9,286046998.4,N
1457642555.7,286047000.6,N
1457642575.6,286046995.5,N
1457642595.4,286046994.9,Y
1457642615.2,286046998.6,P
1457642635.1,286046996.7,P
1457642636.0,286046996.7,P
1457642655.8,286046995.8,Y
1457642675.6,286046998.6,P
1457642695.5,286047002.2,P
1457642715.3,286047001.1,N
1457642735.1,286046999.1,N
1457642755.9,286047002.1,N
1457642775.7,286047005.8,Y
1457642795.5,286047002.3,P
1457642815.4,286047000.3,N
1457642835.2,286046999.6,N
1457642855.0,286046996.5,Y
1457642855.9,286046996.5,P
1457642875.8,286046997.2,N
1457642895.6,286046997.9,N
1457642915.4,286046995.4,Y
1457642935.3,286046997.2,P
1457642955.1,286046998.1,P
1457642975.8,286047000.9,N
1457642995.7,286047002.6,N
1457643015.5,286047000.5,N
1457643035.3,286046998.9,N
1457643055.2,286047002.3,N
1457643075.9,286047002.1,N
1457643095.7,286047002.5,N
1457643115.6,286047002.2,N
1457643135.4,286047005.9,N
1457643155.2,286047005.2,N
1457643175.1,286047001.3,N
1457643176.0,286047001.3,N
1457643195.8,286047004.0,N
1457643215.6,286047000.2,N
1457643235.4,286047001.6,N
1457643255.3,286047005.9,N
1457643275.1,286047003.0,N
1457643295.8,286047004.2,N
1457643315.7,286047004.4,N
1457643335.5,286047006.0,N
1457643355.3,286047002.3,N
1457643375.2,286047004.4,N
1457643395.9,286047004.7,N
1457643415.7,286047006.0,N
1457643435.6,286047005.9,N
1457643455.4,286047006.4,N
1457643475.2,286047005.3,N
1457643495.1,286047004.5,N
1457643496.0,286047004.5,N
1457643515.8,286047006.8,Y
1457643535.6,286047005.3,P
1457643555.5,286047006.6,P
1457643575.3,286047008.4,P
1457643595.1,286047009.6,Y
